SCP
1 1 1 1 1 0 0 0 0 0 0 0 0 0 0 0 0 1 1 1 1 1 2 2 3 2 2 1 2 2 1 1 1 1 1 0 0 0 0 1 1 1 1 0 0 1 1 1 1
1 1 1 1 1 0 0 0 0 0 0 0 0 0 0 0 1 1 1 1 1 1 2 3 3 3 2 2 2 1 1 1 1 1 1 0 0 0 0 1 1 1 1 0 0 0 1 1 1
1 1 1 1 0 0 0 0 0 0 0 0 0 0 0 1 1 1 1 1 1 1 2 3 4 3 3 2 2 2 1 1 1 1 0 0 0 0 0 0 0 0 0 0 0 0 0 1 1
1 1 1 0 0 0 0 0 0 0 0 0 0 0 1 1 1 1 1 1 1 1 2 3 4 3 3 3 2 2 2 1 1 0 0 0 0 0 0 0 0 0 0 0 0 0 0 1 1
1 1 1 0 0 0 0 0 0 0 0 0 0 0 1 1 1 1 1 1 1 1 2 3 3 3 3 3 3 3 2 1 1 1 0 0 0 0 0 0 0 0 0 0 0 0 0 0 0
1 1 0 0 0 0 0 0 0 0 0 0 0 0 1 1 1 1 1 1 1 1 2 2 3 3 3 3 3 3 2 1 1 1 1 0 0 0 0 0 0 0 0 0 0 0 0 0 0
1 1 0 0 0 0 0 0 0 0 0 0 0 0 1 1 1 1 1 1 1 2 2 2 2 2 3 3 2 2 2 1 1 1 0 0 0 0 0 0 0 0 0 0 0 0 0 0 0
1 0 0 0 0 0 0 0 0 0 0 0 0 0 1 1 1 1 1 2 2 2 2 2 2 2 2 2 2 1 1 1 1 1 0 0 0 0 0 0 0 0 0 0 0 0 0 0 0
1 0 0 0 1 1 0 0 0 0 0 0 0 1 1 1 1 2 2 2 2 2 2 2 1 1 1 1 1 1 1 1 1 1 0 0 0 0 0 0 0 0 0 0 0 0 0 0 0
0 0 0 0 0 0 0 0 0 0 0 0 0 1 1 1 1 2 2 2 2 2 2 2 2 1 1 1 1 1 1 1 0 0 0 0 0 0 0 0 0 0 0 0 0 0 0 0 0
0 0 0 0 0 0 0 0 0 0 0 0 1 1 1 1 1 1 1 1 2 2 2 2 2 1 1 1 1 1 1 0 0 0 0 0 0 0 0 0 0 0 0 0 0 0 0 0 0
0 0 0 0 0 0 0 0 0 0 0 0 1 1 1 1 1 1 1 1 1 2 2 2 2 2 1 1 1 1 0 0 0 0 0 0 0 0 0 0 0 0 0 0 0 0 0 0 0
0 0 0 0 0 0 0 0 0 0 0 0 1 1 1 1 1 1 1 1 1 2 2 2 2 2 2 1 1 0 0 0 0 0 0 0 0 0 0 0 0 0 0 0 0 0 0 0 0
0 0 0 0 0 0 0 0 0 0 0 0 0 1 1 0 1 1 1 1 1 1 2 2 2 2 1 1 0 0 0 0 0 0 0 0 0 0 0 0 0 0 0 0 0 0 0 0 0
0 0 0 0 0 0 0 0 0 0 0 0 0 1 1 1 1 1 1 1 1 1 1 2 2 1 1 1 0 0 0 0 0 0 0 0 0 0 0 0 0 0 0 0 0 0 0 0 0
0 0 0 0 0 0 0 0 0 0 0 0 1 1 1 1 1 1 1 1 1 1 1 1 1 1 1 0 0 0 0 0 0 0 0 0 0 0 0 0 0 0 0 0 0 0 0 0 0
0 0 0 0 0 0 0 0 0 1 0 0 1 1 1 1 1 1 1 1 1 1 1 1 1 1 1 0 0 0 0 0 0 0 0 0 0 0 0 0 0 0 0 0 0 0 0 0 0
0 0 0 0 0 0 0 0 0 1 0 0 1 1 1 1 1 1 1 1 2 2 2 1 1 1 1 0 0 0 0 0 0 0 0 0 0 0 0 0 0 0 0 0 0 0 0 0 0
0 0 0 0 0 0 0 0 0 0 0 0 1 1 1 1 1 1 1 2 2 2 1 1 1 1 1 1 0 0 0 0 0 0 0 0 0 0 0 0 0 0 0 0 0 0 0 0 0
0 0 0 0 0 0 0 0 0 0 0 0 0 1 1 1 1 2 1 2 2 2 1 1 1 1 1 1 0 0 0 0 0 0 0 0 0 0 0 0 0 0 0 0 0 0 0 0 0
0 0 0 0 0 0 0 0 0 0 0 0 0 1 1 1 2 2 2 2 2 1 1 1 1 0 0 1 0 0 0 0 0 0 0 0 0 0 0 0 0 0 0 0 0 0 0 0 0
0 0 0 0 0 0 0 0 0 0 0 0 0 1 1 2 2 2 2 2 2 1 1 1 1 0 0 0 0 0 0 0 0 0 0 0 0 0 0 0 0 0 0 0 0 0 0 0 0
0 0 0 0 0 0 0 0 0 0 0 0 0 0 1 1 2 2 2 2 2 2 1 1 1 1 0 0 0 0 0 0 0 0 0 0 0 0 0 0 0 0 0 0 0 0 0 0 0
0 0 0 0 0 0 0 0 0 0 0 0 0 0 1 1 2 2 3 3 3 2 2 2 1 1 1 0 0 0 0 0 0 0 0 0 0 0 0 0 0 0 0 0 0 0 0 0 0
0 0 0 0 0 0 0 0 0 0 0 0 0 0 1 1 1 2 3 4 4 4 3 3 2 2 1 1 0 0 0 0 0 0 0 0 0 0 0 0 0 0 0 0 0 0 0 0 0
0 0 0 0 0 0 0 0 0 0 0 0 0 1 1 1 2 2 3 4 5 4 4 3 3 2 1 1 1 0 0 0 0 0 0 0 0 0 0 0 0 0 0 0 0 0 0 0 0
0 0 0 0 0 0 0 0 0 0 0 0 0 1 1 2 2 2 3 5 5 5 4 3 3 2 1 1 0 0 0 0 0 0 0 0 0 0 0 0 0 0 0 0 0 0 0 0 0
0 0 0 0 0 0 0 0 0 0 0 0 0 0 1 2 2 2 2 4 5 4 3 3 2 2 1 1 0 0 0 0 0 0 0 0 0 0 0 0 0 0 0 0 0 0 0 0 0
0 0 0 0 0 0 0 0 0 0 0 0 0 0 1 1 2 2 2 4 4 4 3 2 2 1 1 1 0 0 0 0 0 0 0 0 0 0 0 0 0 0 0 0 0 0 0 0 0
0 0 0 0 0 0 0 0 0 0 0 0 0 0 1 1 1 2 2 4 4 3 2 2 2 1 1 1 0 0 0 0 0 0 0 0 0 0 0 0 0 0 0 0 0 0 0 0 0
Wind_Speed
9 10 7 2 2 3 2 5 8 7 7 8 8 8 11 11 8 7 2 2 7 10 10 9 9 9 9 9 9 10 10 9 8 8 8 9 9 9 9 8 9 9 9 9 9 9 9 8 8
9 6 4 3 3 1 4 6 9 9 7 5 7 10 12 11 10 8 4 3 7 11 10 9 10 10 10 10 10 10 10 9 9 9 9 8 9 8 8 8 8 8 9 8 8 8 8 8 7
10 6 4 3 2 2 4 7 7 8 6 6 7 10 9 7 8 5 4 5 9 11 11 10 10 10 10 10 10 10 10 10 9 9 9 8 9 8 7 7 7 8 8 8 8 7 7 7 7
5 3 4 3 2 6 6 6 6 6 6 6 8 9 9 9 6 7 5 7 10 11 11 10 11 11 11 11 10 9 9 10 9 9 9 8 8 8 7 7 7 7 7 7 7 7 7 7 7
3 4 4 2 3 6 7 6 6 6 6 9 10 10 9 8 9 8 6 8 9 10 10 10 12 11 11 11 10 10 10 9 9 9 9 8 8 8 8 8 8 8 7 7 7 6 7 7 6
3 4 4 1 5 7 6 6 7 7 7 7 8 10 8 8 7 6 8 8 9 10 10 10 12 12 11 11 10 10 9 9 9 9 9 8 8 8 8 8 7 7 7 6 6 6 6 6 5
4 5 4 1 4 5 5 6 7 6 8 7 5 8 8 8 5 7 7 7 8 8 9 10 9 10 11 11 10 9 9 8 8 8 7 7 7 7 7 8 7 6 6 6 6 5 5 5 4
4 5 5 1 4 4 5 4 5 6 6 5 4 6 8 7 6 7 7 7 7 7 7 7 9 9 8 7 9 9 8 8 7 6 5 5 6 6 7 7 6 6 6 5 5 4 4 3 2
5 4 3 3 3 3 3 3 4 4 5 5 8 10 12 10 8 6 6 7 6 6 5 6 7 7 7 7 8 8 7 6 5 4 5 4 3 4 4 7 6 5 4 4 3 2 2 2 1
3 2 2 4 3 3 3 2 2 2 4 6 9 12 12 9 8 7 7 7 6 6 5 5 6 6 6 5 6 4 4 4 3 2 2 2 2 3 5 6 6 5 3 2 2 2 1 1 1
3 2 2 3 3 2 2 2 1 1 3 5 8 11 10 8 7 7 6 6 6 6 5 5 5 6 5 3 3 2 2 2 2 2 2 2 2 2 3 3 3 3 3 1 2 2 1 1 1
2 2 2 2 3 1 1 1 1 3 4 5 8 11 10 8 6 5 6 7 6 6 5 5 4 5 5 4 3 2 2 1 2 1 2 2 1 1 2 1 2 1 1 1 1 1 2 3 4
3 1 1 0 1 1 1 0 1 3 4 6 8 9 8 7 7 6 7 6 6 6 5 5 4 4 5 4 2 3 2 2 3 1 1 2 2 1 2 2 2 2 2 2 2 3 4 4 5
1 1 2 3 2 2 2 2 3 4 5 6 7 8 7 7 6 6 7 7 7 6 6 4 4 4 4 3 2 3 3 2 2 1 1 2 2 2 2 2 2 2 2 2 2 3 3 3 4
3 4 5 4 4 3 2 4 4 7 7 7 8 8 7 7 6 6 7 6 7 6 7 5 4 5 4 4 3 3 2 3 3 1 1 2 2 2 2 2 2 1 2 3 3 3 3 3 4
7 7 6 5 5 4 4 3 4 7 8 7 7 8 6 6 7 7 6 6 6 7 7 5 4 5 5 4 3 1 3 3 3 2 2 2 2 4 3 2 1 2 2 3 2 2 2 3 3
7 7 6 4 6 5 5 3 5 7 7 7 7 9 9 8 7 7 7 7 7 6 7 6 5 5 5 4 2 2 3 3 3 3 3 3 3 4 4 2 2 3 3 2 3 3 3 3 3
4 5 5 4 5 5 5 5 5 7 7 7 7 7 9 9 9 8 7 7 6 6 6 7 6 5 5 2 3 2 3 3 3 3 3 3 3 4 3 1 2 3 3 3 3 3 3 2 2
6 7 6 3 1 3 5 6 5 7 7 7 7 7 8 8 9 8 8 8 7 6 6 7 6 5 4 2 2 2 2 2 2 2 3 3 3 3 3 2 3 3 2 2 3 2 2 2 2
8 7 6 3 3 4 6 7 5 7 8 8 8 8 8 9 9 9 9 8 8 7 6 7 6 5 5 2 2 2 3 2 3 2 3 3 3 3 2 2 2 2 2 3 2 2 1 0 1
8 6 5 5 6 6 6 7 7 7 7 7 7 7 9 11 11 11 10 8 8 7 6 6 6 6 6 4 2 2 3 2 2 2 2 2 2 3 3 3 2 2 2 2 1 1 2 1 1
6 5 5 6 6 5 5 4 4 6 7 7 6 6 7 9 11 11 10 9 8 7 6 6 7 6 6 5 3 3 3 2 2 2 2 2 3 3 3 3 2 2 2 2 1 2 1 2 1
4 5 6 7 8 8 8 6 3 4 5 6 7 7 6 7 10 11 10 9 8 7 6 5 7 7 6 5 4 2 3 2 2 3 3 3 2 2 2 2 2 2 2 2 2 2 2 1 1
4 6 8 8 6 7 8 6 2 2 3 4 5 6 7 7 8 10 10 9 7 7 6 6 7 6 5 4 4 3 3 2 3 3 2 2 2 1 2 1 1 2 2 2 2 2 2 1 1
6 5 3 4 5 5 3 4 2 4 4 3 3 4 7 7 8 9 10 10 9 9 8 7 7 6 6 4 4 4 3 2 4 4 3 2 2 2 1 2 1 2 2 3 3 2 2 1 2
6 7 4 3 3 2 2 2 3 6 6 4 3 3 5 7 8 9 10 10 9 9 8 8 7 7 6 4 4 4 4 2 2 3 3 2 2 2 2 2 2 2 2 3 3 2 2 2 2
6 6 7 6 8 6 3 2 4 6 4 3 2 4 5 6 7 9 10 10 10 10 9 8 8 7 6 5 3 3 4 3 3 2 3 3 3 3 3 3 3 2 2 2 2 2 2 3 2
8 6 3 4 4 5 4 2 2 4 3 2 2 3 5 6 7 9 9 9 9 9 8 8 8 8 7 5 4 4 3 3 3 2 2 2 3 3 3 3 3 3 3 2 3 2 1 2 2
8 8 6 4 5 4 3 1 2 3 2 2 2 3 4 6 6 7 8 9 9 9 8 8 8 8 7 6 5 4 3 4 3 2 2 2 3 4 4 3 3 3 3 3 3 2 1 1 1
8 8 7 5 5 5 4 1 3 3 3 2 2 3 5 6 6 6 7 8 9 9 9 8 8 8 7 6 6 5 4 4 4 3 2 2 2 3 4 3 3 3 3 3 3 2 2 2 3
Wind_Direction
269 247 237 240 253 236 52 63 65 51 48 47 40 53 66 54 48 83 117 63 92 99 101 95 90 90 89 87 87 88 89 89 87 83 82 80 80 79 78 78 76 75 75 72 68 68 64 60 58
280 271 258 239 257 249 67 68 69 62 56 57 55 58 69 65 72 92 105 82 93 94 91 91 95 91 90 89 89 91 91 90 87 84 83 83 82 79 77 77 76 73 72 70 67 65 63 59 53
268 264 259 249 280 54 76 72 72 74 54 52 67 59 54 58 71 92 125 120 95 93 92 91 95 95 93 90 90 93 93 91 90 89 85 85 84 80 75 74 73 71 71 70 67 62 60 57 51
266 253 245 252 23 69 85 85 81 74 59 49 71 75 66 52 75 105 124 108 97 97 98 99 96 96 95 93 91 92 93 94 94 93 90 88 86 83 78 78 76 72 72 72 68 62 58 54 48
248 255 251 245 84 74 71 66 68 67 57 56 72 88 83 74 91 105 103 96 95 99 103 105 102 100 98 95 95 100 100 98 97 96 93 90 86 83 82 82 80 76 72 72 66 60 57 53 48
266 253 261 189 95 81 67 56 53 67 65 62 83 98 96 99 96 100 100 97 102 107 110 112 106 103 99 98 98 101 101 100 100 98 96 95 94 91 86 82 81 79 75 73 71 64 60 58 52
277 284 282 121 100 89 68 49 51 61 63 47 67 99 114 106 106 105 102 103 104 110 117 124 123 110 101 99 101 103 104 104 104 105 106 108 110 106 98 91 85 83 80 76 74 74 66 65 59
283 290 294 44 95 85 70 59 55 55 70 56 49 102 123 124 124 114 117 108 104 109 113 123 126 126 122 111 111 116 117 117 118 125 136 139 139 129 117 106 94 88 82 83 83 82 80 75 62
273 273 322 35 84 93 84 67 64 84 96 78 63 85 117 134 134 126 121 111 109 111 116 118 122 127 126 125 127 134 138 140 142 156 174 175 174 154 133 109 113 104 97 100 106 112 129 133 134
245 303 355 35 65 108 108 79 94 127 107 102 99 103 121 141 146 144 138 132 129 123 119 114 118 122 118 122 134 150 148 152 171 154 160 170 142 109 116 128 135 135 140 152 181 219 200 193 223
249 290 8 31 48 87 114 110 76 86 86 104 124 131 141 154 153 147 133 120 115 117 113 109 111 114 117 114 121 124 127 144 139 119 126 110 104 132 135 150 158 170 175 196 189 213 213 159 106
272 318 0 59 57 31 61 92 80 69 73 98 124 136 148 157 148 146 129 123 119 109 109 109 110 116 113 113 121 135 121 113 96 88 97 88 92 95 103 119 139 142 129 77 71 65 54 62 73
248 234 294 313 141 261 249 128 87 101 109 116 130 140 152 155 151 141 125 123 120 117 118 107 102 99 101 103 133 121 105 89 99 69 76 100 85 78 92 95 83 67 79 76 52 63 62 53 55
274 265 238 240 212 229 249 242 205 143 135 141 145 151 163 154 147 141 135 140 137 139 126 112 112 103 117 125 115 109 113 118 102 92 83 99 98 86 72 80 74 64 63 65 62 72 74 67 59
249 245 231 220 219 214 253 251 194 150 158 161 162 163 159 150 151 153 146 146 141 134 123 119 111 99 87 87 76 92 107 103 91 78 61 96 94 94 75 76 79 69 67 65 52 56 69 78 74
230 235 232 204 204 199 228 251 164 160 174 172 173 162 158 157 165 156 147 141 133 130 123 122 107 95 79 72 69 74 88 84 85 69 42 57 78 87 79 65 79 88 76 79 76 53 66 71 64
228 237 239 208 192 207 223 241 173 175 185 183 183 168 166 169 173 157 150 142 137 133 130 127 108 102 89 86 92 52 77 80 78 68 51 37 51 81 79 46 38 71 70 63 73 64 67 77 71
244 258 258 242 183 215 238 244 200 193 203 200 183 173 173 173 171 159 149 135 128 122 124 123 114 112 107 91 94 75 67 68 70 68 65 50 44 67 78 61 48 63 71 62 68 75 69 72 69
280 272 273 280 214 246 255 253 226 196 203 209 191 181 178 171 161 151 143 137 135 134 134 132 137 130 118 96 98 101 99 89 81 82 71 58 52 66 76 62 56 58 76 82 92 85 93 84 87
274 275 286 297 295 272 264 261 241 207 205 207 202 187 181 170 159 154 156 155 153 152 157 155 144 129 116 101 112 126 115 106 94 78 65 57 55 48 77 80 83 80 78 68 77 90 76 74 117
265 270 283 295 296 268 266 259 239 208 205 201 210 197 183 173 167 164 166 158 154 156 165 148 132 129 130 127 85 81 80 85 92 91 72 55 59 46 47 58 72 97 104 110 116 108 102 52 30
261 278 283 281 278 267 249 269 238 200 189 191 197 204 190 173 169 165 161 160 162 159 157 144 138 132 123 117 108 121 113 111 117 117 119 95 66 66 44 50 55 80 92 114 124 100 97 88 38
280 293 271 266 271 276 263 261 241 181 179 186 187 193 186 173 166 162 159 161 160 152 143 136 126 121 118 120 121 120 116 125 119 114 117 111 95 86 67 45 43 75 91 96 83 82 77 85 86
264 273 263 247 258 258 246 245 238 189 167 169 174 182 179 172 162 157 153 151 148 141 135 130 125 124 128 133 148 149 136 148 129 119 120 123 116 95 88 67 57 73 81 85 86 89 82 67 53
235 254 254 221 218 236 226 228 188 104 94 113 146 171 168 162 157 155 153 155 150 147 146 143 139 137 143 161 171 168 170 168 137 139 133 128 123 116 114 95 73 69 72 75 78 77 94 96 80
232 241 259 277 273 289 239 227 111 96 92 101 116 139 148 155 159 159 157 156 154 153 153 155 152 152 159 179 183 167 152 136 130 137 133 138 136 142 139 115 97 81 77 78 74 68 60 77 77
238 243 264 288 293 288 242 155 119 105 96 104 129 134 142 153 160 159 158 159 157 157 160 163 158 160 166 179 172 153 156 149 142 132 124 136 142 142 134 128 121 114 93 82 80 66 48 59 51
245 258 258 261 284 273 264 238 183 137 137 151 138 142 146 154 162 161 160 160 159 158 162 164 165 166 166 172 166 162 145 130 122 114 126 142 141 134 128 130 134 133 123 100 87 73 56 78 84
220 234 239 247 258 276 289 333 57 118 135 142 138 135 143 144 149 154 159 161 157 156 162 169 170 164 164 168 159 155 146 141 137 137 140 140 138 131 130 134 129 125 122 108 97 99 71 85 98
230 232 234 241 259 262 273 251 121 115 106 120 135 130 134 138 144 150 152 156 158 161 169 172 169 164 165 162 159 164 155 159 154 150 160 149 140 138 141 136 130 122 115 117 121 119 94 71 67